When you browse on this site, cookies collect data to enhance your experience and personalize the content and advertising you see.
Visit our Privacy Policy to learn more. By continuing to use the site, you agree to this use of cookies and data.

Previsão horária em Abak

Hoje, 21 Setembro, Segunda-feira

Tempo Temperatura Precipitação Vento Pressão Humidade
00:00 +23°C° 0 mm 0 m/s 755 mmHg 96%
01:00 +22°C° 0 mm 0 m/s 755 mmHg 96%
02:00 +22°C° 0 mm 0 m/s 754 mmHg 96%
03:00 +22°C° 0 mm 0 m/s 754 mmHg 96%
04:00 +22°C° 0 mm 0 m/s 754 mmHg 96%
05:00 +24°C° 0 mm 1 m/s 754 mmHg 94%
06:00 +25°C° 0 mm 1 m/s 755 mmHg 93%
07:00 +25°C° 0 mm 1 m/s 755 mmHg 92%
08:00 +27°C° 0.1 mm 1 m/s 755 mmHg 84%
09:00 +29°C° 0.1 mm 1 m/s 756 mmHg 76%
10:00 +31°C° 0.1 mm 1 m/s 756 mmHg 68%
11:00 +32°C° 0.7 mm 1 m/s 755 mmHg 65%
12:00 +33°C° 0.7 mm 1 m/s 755 mmHg 62%
13:00 +34°C° 0.7 mm 1 m/s 754 mmHg 59%
14:00 +33°C° 2.1 mm 1 m/s 753 mmHg 65%
15:00 +31°C° 2.1 mm 2 m/s 753 mmHg 71%
16:00 +30°C° 2.1 mm 3 m/s 752 mmHg 77%
17:00 +29°C° 1.8 mm 3 m/s 753 mmHg 82%
18:00 +28°C° 1.8 mm 2 m/s 753 mmHg 86%
19:00 +26°C° 1.8 mm 2 m/s 754 mmHg 91%
20:00 +26°C° 0.1 mm 2 m/s 754 mmHg 92%
21:00 +26°C° 0.1 mm 2 m/s 755 mmHg 92%
22:00 +26°C° 0.1 mm 2 m/s 755 mmHg 93%
23:00 +26°C° 0 mm 1 m/s 755 mmHg 94%

Amanhã, 22 Setembro, Terça-feira

Tempo Temperatura Precipitação Vento Pressão Humidade
00:00 +25°C° 0 mm 1 m/s 755 mmHg 94%
01:00 +25°C° 0 mm 1 m/s 755 mmHg 95%
02:00 +25°C° 0.1 mm 1 m/s 754 mmHg 95%
03:00 +25°C° 0.1 mm 1 m/s 754 mmHg 95%
04:00 +25°C° 0.1 mm 1 m/s 754 mmHg 96%
05:00 +23°C° 0 mm 0 m/s 754 mmHg 95%
06:00 +23°C° 0 mm 0 m/s 754 mmHg 94%
07:00 +23°C° 0 mm 0 m/s 755 mmHg 93%
08:00 +27°C° 0.6 mm 1 m/s 755 mmHg 87%
09:00 +28°C° 0.6 mm 1 m/s 755 mmHg 80%
10:00 +30°C° 0.6 mm 1 m/s 756 mmHg 74%
11:00 +30°C° 1.5 mm 2 m/s 755 mmHg 73%
12:00 +31°C° 1.5 mm 2 m/s 755 mmHg 72%
13:00 +31°C° 1.5 mm 3 m/s 754 mmHg 72%
14:00 +30°C° 3.1 mm 3 m/s 753 mmHg 76%
15:00 +29°C° 3.1 mm 3 m/s 753 mmHg 81%
16:00 +28°C° 3.1 mm 3 m/s 752 mmHg 86%
17:00 +27°C° 2.5 mm 3 m/s 753 mmHg 88%
18:00 +27°C° 2.5 mm 3 m/s 754 mmHg 91%
19:00 +26°C° 2.5 mm 3 m/s 754 mmHg 93%
20:00 +26°C° 4.1 mm 3 m/s 755 mmHg 94%
21:00 +25°C° 4.1 mm 2 m/s 755 mmHg 95%
22:00 +25°C° 4.1 mm 2 m/s 756 mmHg 97%
23:00 +25°C° 1.7 mm 2 m/s 756 mmHg 97%

Depois de amanhã, 23 Setembro, Quarta-feira

Tempo Temperatura Precipitação Vento Pressão Humidade
00:00 +25°C° 1.7 mm 1 m/s 755 mmHg 97%
01:00 +25°C° 1.7 mm 1 m/s 755 mmHg 97%
02:00 +25°C° 0 mm 1 m/s 755 mmHg 97%
03:00 +25°C° 0 mm 1 m/s 755 mmHg 97%
04:00 +23°C° 0 mm 0 m/s 754 mmHg 97%
05:00 +23°C° 0.2 mm 0 m/s 755 mmHg 97%
06:00 +25°C° 0.2 mm 1 m/s 755 mmHg 96%
07:00 +25°C° 0.2 mm 1 m/s 755 mmHg 96%
08:00 +25°C° 0.1 mm 1 m/s 756 mmHg 94%
09:00 +26°C° 0.1 mm 1 m/s 756 mmHg 92%
10:00 +26°C° 0.1 mm 1 m/s 756 mmHg 89%
11:00 +28°C° 0.1 mm 1 m/s 756 mmHg 84%
12:00 +29°C° 0.1 mm 2 m/s 755 mmHg 78%
13:00 +30°C° 0.1 mm 2 m/s 754 mmHg 73%
14:00 +30°C° 0.4 mm 3 m/s 754 mmHg 74%
15:00 +30°C° 0.4 mm 3 m/s 753 mmHg 75%
16:00 +30°C° 0.4 mm 3 m/s 753 mmHg 76%
17:00 +29°C° 1.2 mm 3 m/s 753 mmHg 81%
18:00 +27°C° 1.2 mm 3 m/s 754 mmHg 86%
19:00 +26°C° 1.2 mm 3 m/s 754 mmHg 91%
20:00 +26°C° 0.1 mm 2 m/s 755 mmHg 92%
21:00 +26°C° 0.1 mm 2 m/s 755 mmHg 93%
22:00 +25°C° 0.1 mm 1 m/s 756 mmHg 94%
23:00 +25°C° 0.2 mm 1 m/s 756 mmHg 94%

24 Setembro, Quinta-feira

Tempo Temperatura Precipitação Vento Pressão Humidade
00:00 +25°C° 0.2 mm 1 m/s 755 mmHg 95%
01:00 +25°C° 0.2 mm 1 m/s 755 mmHg 95%
02:00 +25°C° 0.2 mm 1 m/s 755 mmHg 94%
03:00 +25°C° 0.2 mm 1 m/s 754 mmHg 94%
04:00 +25°C° 0.2 mm 1 m/s 754 mmHg 94%
05:00 +25°C° 0.3 mm 1 m/s 754 mmHg 94%
06:00 +25°C° 0.3 mm 1 m/s 755 mmHg 94%
07:00 +25°C° 0.3 mm 1 m/s 755 mmHg 95%
08:00 +25°C° 0.5 mm 1 m/s 756 mmHg 93%
09:00 +26°C° 0.5 mm 1 m/s 756 mmHg 91%
10:00 +26°C° 0.5 mm 1 m/s 756 mmHg 89%
11:00 +28°C° 0.1 mm 1 m/s 756 mmHg 83%
12:00 +29°C° 0.1 mm 1 m/s 755 mmHg 77%
13:00 +28°C° 0.1 mm 0 m/s 754 mmHg 71%
14:00 +29°C° 0.3 mm 1 m/s 754 mmHg 76%
15:00 +28°C° 0.3 mm 1 m/s 753 mmHg 81%
16:00 +27°C° 0.3 mm 1 m/s 753 mmHg 86%
17:00 +27°C° 1.2 mm 2 m/s 753 mmHg 88%
18:00 +26°C° 1.2 mm 2 m/s 754 mmHg 91%
19:00 +25°C° 1.2 mm 2 m/s 754 mmHg 94%
20:00 +25°C° 0.4 mm 1 m/s 755 mmHg 94%
21:00 +25°C° 0.4 mm 1 m/s 755 mmHg 95%
22:00 +25°C° 0.4 mm 1 m/s 755 mmHg 95%
23:00 +25°C° 0.1 mm 1 m/s 755 mmHg 96%

25 Setembro, Sexta-feira

Tempo Temperatura Precipitação Vento Pressão Humidade
00:00 +25°C° 0.1 mm 1 m/s 755 mmHg 96%
01:00 +23°C° 0.1 mm 0 m/s 755 mmHg 96%
02:00 +23°C° 0.4 mm 0 m/s 754 mmHg 96%
03:00 +23°C° 0.4 mm 0 m/s 754 mmHg 97%
04:00 +23°C° 0.4 mm 0 m/s 754 mmHg 97%
05:00 +23°C° 0.5 mm 0 m/s 754 mmHg 97%
06:00 +23°C° 0.5 mm 0 m/s 755 mmHg 97%
07:00 +23°C° 0.5 mm 0 m/s 755 mmHg 97%
08:00 +23°C° 0.3 mm 0 m/s 755 mmHg 95%
09:00 +23°C° 0.3 mm 0 m/s 756 mmHg 94%
10:00 +24°C° 0.3 mm 0 m/s 756 mmHg 93%
11:00 +25°C° 0 mm 0 m/s 755 mmHg 88%
12:00 +28°C° 0 mm 1 m/s 755 mmHg 83%
13:00 +29°C° 0 mm 1 m/s 754 mmHg 77%
14:00 +28°C° 0.4 mm 1 m/s 754 mmHg 81%
15:00 +28°C° 0.4 mm 1 m/s 753 mmHg 85%
16:00 +27°C° 0.4 mm 1 m/s 753 mmHg 89%
17:00 +26°C° 0.1 mm 1 m/s 753 mmHg 90%
18:00 +26°C° 0 mm 1 m/s 753 mmHg 91%
19:00 +26°C° 0 mm 1 m/s 754 mmHg 92%
20:00 +26°C° 0 mm 1 m/s 754 mmHg 93%
21:00 +26°C° 0 mm 1 m/s 754 mmHg 94%
22:00 +25°C° 0 mm 1 m/s 755 mmHg 94%
23:00 +25°C° 0 mm 1 m/s 754 mmHg 95%

26 Setembro, Sábado

Tempo Temperatura Precipitação Vento Pressão Humidade
00:00 +25°C° 0 mm 1 m/s 754 mmHg 95%
01:00 +25°C° 0 mm 1 m/s 754 mmHg 96%
02:00 +25°C° 0 mm 1 m/s 754 mmHg 96%
03:00 +25°C° 0 mm 1 m/s 753 mmHg 95%
04:00 +25°C° 0 mm 1 m/s 753 mmHg 95%
05:00 +25°C° 0.9 mm 1 m/s 753 mmHg 95%
06:00 +25°C° 0.9 mm 1 m/s 754 mmHg 95%
07:00 +25°C° 0.9 mm 1 m/s 754 mmHg 95%
08:00 +26°C° 1 mm 1 m/s 754 mmHg 92%
09:00 +27°C° 1 mm 1 m/s 755 mmHg 88%
10:00 +26°C° 1 mm 0 m/s 755 mmHg 85%
11:00 +28°C° 1.9 mm 1 m/s 754 mmHg 86%
12:00 +27°C° 1.9 mm 1 m/s 754 mmHg 87%
13:00 +27°C° 1.9 mm 2 m/s 753 mmHg 89%
14:00 +26°C° 0.7 mm 2 m/s 753 mmHg 90%
15:00 +26°C° 0.7 mm 3 m/s 752 mmHg 91%
16:00 +26°C° 0.7 mm 3 m/s 752 mmHg 93%
17:00 +25°C° 0.2 mm 3 m/s 752 mmHg 93%
18:00 +25°C° 0.2 mm 3 m/s 753 mmHg 94%
19:00 +25°C° 0.2 mm 3 m/s 753 mmHg 95%
20:00 +25°C° 0.1 mm 2 m/s 754 mmHg 95%
21:00 +25°C° 0.1 mm 2 m/s 754 mmHg 95%
22:00 +24°C° 0.1 mm 2 m/s 755 mmHg 95%
23:00 +24°C° 0 mm 1 m/s 754 mmHg 96%
Mostrar mais